Temperature
5 5 5 5 5 5 5 5 5 6 6 6 6 6 6 6 7 7 7 7 7 7 8 8 8 8 8 8 8 8 8 8 8 8 8 8 7 7 7 7 7 7 7
5 5 5 5 5 5 5 5 5 5 6 6 6 6 6 6 6 6 7 7 7 7 7 7 8 7 7 8 8 8 8 8 8 7 7 7 7 7 7 7 7 7 6
5 5 5 5 5 5 5 5 5 5 5 5 5 5 6 6 6 6 6 6 7 7 7 7 7 7 7 7 7 7 8 8 7 7 7 7 7 7 7 6 6 6 6
4 4 4 4 4 4 4 4 5 5 5 5 5 5 5 5 5 6 6 6 6 6 7 7 7 7 7 7 7 7 7 7 7 7 7 7 6 6 6 6 6 6 6
4 4 4 4 4 4 4 4 4 4 4 5 5 5 5 5 5 5 5 6 6 6 6 6 6 7 7 7 7 7 7 7 7 6 6 6 6 6 6 6 6 6 5
4 4 4 4 4 4 4 4 4 4 4 4 4 4 4 5 5 5 5 5 5 5 6 6 6 6 6 6 7 7 7 7 6 6 6 6 6 6 6 6 5 5 5
3 3 3 3 4 4 3 3 4 4 4 4 4 4 4 5 5 5 5 5 5 5 5 6 6 6 6 6 6 6 6 6 6 7 6 6 6 6 6 6 5 5 5
3 3 3 3 3 3 3 3 3 3 3 3 4 4 4 4 4 4 4 4 5 5 5 5 5 6 6 6 6 6 6 6 6 6 6 6 6 6 6 6 5 5 4
3 3 3 3 3 3 3 3 3 3 3 3 3 3 3 4 4 4 4 4 4 5 5 5 5 5 5 5 5 6 5 6 6 6 6 6 6 6 5 5 5 4 4
2 2 2 2 2 2 2 2 2 2 3 3 3 3 3 3 3 4 4 4 4 4 5 5 5 5 5 5 5 5 5 5 5 5 5 5 5 5 5 5 5 4 4
2 2 2 2 2 2 2 2 2 2 2 3 3 3 3 3 3 3 3 4 4 4 4 4 4 4 5 5 5 5 5 5 5 5 5 5 4 4 4 4 4 4 4
2 2 2 2 1 1 1 2 2 2 2 2 2 2 2 2 3 3 3 3 4 4 4 4 4 4 4 5 5 5 5 5 4 4 4 4 4 4 4 4 4 4 4
1 1 1 1 1 1 1 1 1 1 2 1 1 2 2 2 2 3 3 3 3 4 4 4 4 4 4 4 4 4 4 4 4 4 3 3 3 3 3 3 3 3 3
1 1 1 1 1 1 1 1 1 1 1 1 1 1 1 2 2 2 2 3 3 3 3 3 4 4 4 4 4 4 4 4 4 3 3 3 3 3 3 3 3 2 2
0 0 0 0 0 0 0 0 0 1 1 1 1 1 1 1 1 2 2 2 2 3 3 3 3 3 3 3 3 3 3 3 3 3 3 3 2 2 2 2 2 2 1
-0 -0 -0 -0 -0 -0 -0 0 0 1 1 1 1 1 1 1 1 1 2 2 2 2 2 2 2 3 2 2 2 2 2 2 2 2 2 2 2 2 2 2 1 1 1
-1 -1 -1 -1 -1 -1 -1 -1 -0 0 1 1 1 1 1 1 1 1 1 2 2 2 2 2 2 2 2 2 2 2 2 2 2 2 2 2 2 2 2 1 1 1 1
-1 -1 -1 -1 -1 -1 -1 -1 -1 -1 -0 0 0 1 1 1 1 1 1 1 1 2 2 2 2 2 2 2 2 2 1 1 1 2 2 2 2 2 1 1 1 1 1
-1 -1 -1 -1 -1 -1 -1 -1 -1 -1 -1 -1 -0 -0 0 0 0 1 1 1 1 1 1 1 1 1 1 1 1 1 1 1 1 2 2 2 2 1 1 1 1 0 0
-2 -2 -2 -2 -2 -2 -2 -2 -2 -2 -2 -1 -1 -1 -1 -1 -0 -0 0 0 0 1 1 1 1 1 1 1 1 1 1 1 1 1 1 1 1 1 1 1 1 0 0
-2 -2 -2 -2 -2 -2 -2 -2 -2 -2 -2 -2 -2 -2 -1 -1 -1 -1 -1 -0 -0 0 0 1 1 1 1 1 1 1 1 1 1 1 1 1 1 1 1 1 0 0 -0
-3 -3 -3 -3 -3 -3 -3 -3 -3 -3 -2 -2 -2 -2 -2 -2 -1 -1 -1 -1 -1 -0 -0 0 0 1 1 1 1 1 1 1 1 1 1 1 0 0 0 0 0 -0 -0
-3 -3 -3 -3 -3 -3 -3 -3 -3 -3 -3 -3 -3 -2 -2 -2 -2 -2 -2 -2 -1 -1 -1 -0 0 0 0 0 0 0 1 1 1 1 1 1 0 0 0 0 -0 -1 -1
-4 -4 -4 -4 -4 -4 -4 -4 -4 -4 -3 -3 -3 -3 -3 -3 -2 -2 -2 -2 -2 -1 -1 -1 -0 -0 0 0 0 0 0 0 1 1 1 1 0 0 -0 -0 -0 -1 -1
-5 -5 -4 -4 -5 -4 -4 -4 -4 -4 -4 -4 -3 -3 -3 -3 -3 -3 -3 -2 -2 -2 -1 -1 -1 -0 0 0 0 0 0 0 1 0 0 0 0 0 -0 -0 -1 -1 -1
-5 -5 -5 -5 -5 -5 -5 -5 -5 -4 -4 -4 -4 -4 -3 -3 -3 -3 -3 -3 -2 -2 -2 -1 -1 -1 -0 -0 -0 0 0 0 0 0 0 0 -0 -0 -0 -0 -1 -1 -2
Wind_Speed
6 6 5 5 5 6 6 7 8 8 7 7 8 8 9 10 11 11 11 11 12 11 11 11 11 10 9 8 8 8 7 7 7 5 3 4 7 7 7 8 8 9 9
6 5 5 5 5 5 5 6 7 7 6 6 7 8 8 9 9 10 10 11 11 12 11 11 11 9 10 9 8 9 8 8 7 7 5 5 7 7 7 7 6 6 7
6 5 5 5 4 4 5 5 6 6 6 5 6 7 7 8 9 8 8 10 11 12 12 11 11 11 11 9 9 9 8 7 6 6 5 4 4 5 6 5 5 4 4
6 5 5 5 5 4 4 5 5 4 4 5 6 7 7 7 8 8 8 8 9 10 11 11 11 11 11 11 9 9 8 8 7 6 5 5 4 5 5 5 4 4 3
6 5 6 6 5 4 3 3 3 3 4 4 5 6 6 6 6 7 7 7 8 8 9 10 10 10 11 10 8 9 9 8 7 6 6 5 5 5 6 5 5 3 3
5 5 6 5 4 3 3 3 3 3 4 4 5 5 6 5 6 7 7 7 8 8 8 9 9 10 11 11 10 10 10 10 9 8 7 8 8 7 6 6 5 4 3
5 5 5 5 5 4 3 3 3 4 4 4 4 4 5 5 5 6 7 7 7 7 8 8 8 9 10 9 9 9 9 9 10 10 9 10 9 9 9 8 7 5 3
5 5 5 5 5 5 4 3 4 4 4 4 4 5 5 5 5 6 5 6 6 7 7 8 8 9 9 9 8 8 7 7 8 8 8 8 8 8 9 8 7 4 3
6 6 5 5 6 5 5 5 5 5 4 5 4 5 5 5 5 5 6 4 5 6 6 7 8 9 10 11 9 8 7 5 4 6 5 5 6 7 8 6 6 5 2
7 6 6 6 6 6 6 6 5 5 5 5 5 5 5 5 5 5 5 3 4 4 4 5 8 9 10 12 10 9 8 6 5 4 5 5 6 7 9 8 7 6 3
7 7 6 6 6 6 6 6 6 5 5 5 5 5 5 5 5 5 5 2 3 3 3 4 5 9 9 10 10 9 9 7 5 5 5 4 4 4 4 4 3 5 4
7 7 6 6 6 5 6 6 6 5 5 5 5 5 4 4 4 4 5 5 3 3 3 4 5 8 8 8 7 8 10 8 5 5 5 4 4 4 4 4 4 3 2
7 7 6 6 5 5 6 6 5 5 4 4 4 4 4 3 3 3 4 4 4 2 3 3 5 7 7 6 7 9 8 6 6 6 6 5 4 4 5 5 6 6 6
7 7 6 6 6 6 5 5 5 5 4 4 4 4 4 3 3 3 3 3 2 1 1 2 5 6 5 5 5 6 4 5 6 5 5 4 5 5 5 4 4 4 4
7 7 6 5 5 5 5 5 5 5 5 5 5 4 4 4 4 5 4 4 3 2 1 1 3 4 4 3 3 3 3 4 5 5 5 5 5 5 4 4 4 3 3
6 6 6 5 5 5 5 5 5 6 7 7 7 6 6 6 6 6 6 5 3 2 2 3 4 4 4 4 4 3 3 3 4 5 5 5 6 6 5 4 4 3 4
6 6 6 6 5 5 5 5 6 6 6 6 6 7 6 6 5 5 4 3 2 2 2 4 4 4 4 4 4 4 3 3 4 5 5 5 5 6 6 5 5 4 4
6 6 6 6 6 6 5 5 5 6 6 5 5 5 5 4 4 4 3 1 1 1 2 3 4 4 4 4 4 3 3 4 4 5 5 5 6 6 6 6 5 5 5
6 5 5 5 5 6 5 5 5 5 5 5 5 4 4 3 3 3 1 1 2 2 2 2 3 3 3 3 3 4 4 4 4 5 5 5 6 6 6 6 5 7 6
6 7 7 6 5 5 5 5 5 5 5 5 5 4 3 3 2 2 2 1 2 2 2 2 2 3 3 3 4 4 4 4 5 4 5 5 5 6 6 7 6 6 5
5 6 7 6 5 5 5 5 5 5 5 5 4 4 4 3 3 3 3 2 2 2 2 2 2 3 3 3 4 4 4 4 4 4 5 5 5 5 5 5 6 6 5
5 5 5 5 5 5 5 5 4 4 5 5 4 4 4 3 3 2 2 2 2 2 2 2 2 2 3 3 4 5 5 5 5 5 5 5 5 5 5 6 6 6 6
5 5 5 5 4 5 5 5 4 4 4 4 4 3 3 3 3 3 2 2 2 2 1 1 1 2 2 3 3 4 5 5 5 6 6 5 5 5 6 6 7 7 7
5 5 5 5 5 5 5 5 5 5 4 4 4 3 3 3 3 3 2 2 2 2 1 1 1 2 3 3 2 2 3 4 5 6 7 6 6 6 6 6 7 8 7
5 5 5 5 5 5 5 5 5 5 4 4 4 3 3 3 3 3 2 2 2 1 1 1 1 1 3 3 3 3 5 6 6 6 6 6 7 7 7 8 7 8 7
5 5 5 5 5 5 5 5 5 5 4 4 4 3 3 3 3 3 2 2 1 1 1 1 0 1 2 3 4 5 6 7 8 8 7 6 7 7 8 7 9 9 9
Wind_Direction
293 291 280 266 262 250 246 250 252 251 249 244 242 236 233 233 229 229 228 224 225 223 219 220 222 222 221 218 215 212 214 216 224 222 207 198 199 201 199 207 209 206 206
305 298 292 284 270 257 256 259 256 254 246 241 242 239 237 237 234 231 231 225 223 222 220 221 223 221 220 217 213 212 211 212 216 214 206 199 204 200 198 202 205 207 208
322 310 302 295 281 268 266 270 269 257 249 243 243 242 243 243 239 235 235 234 227 224 220 222 224 219 219 215 212 211 208 206 208 209 203 194 198 191 190 197 200 204 205
329 325 310 302 292 284 280 281 278 269 257 249 250 248 246 244 241 238 235 237 236 232 224 223 224 220 219 215 211 210 204 197 197 200 194 187 185 183 183 188 196 204 201
326 324 317 311 300 292 288 288 288 283 278 265 260 258 251 245 243 243 237 236 238 240 231 226 224 218 218 215 210 205 199 195 192 195 196 189 185 180 192 190 196 189 195
326 322 323 321 314 308 306 306 296 288 287 283 271 260 255 256 253 253 242 241 240 240 234 231 224 217 210 211 209 205 201 197 195 199 202 198 198 194 187 182 177 177 206
331 330 329 326 327 315 309 302 300 299 296 287 281 268 262 258 259 263 253 248 243 241 235 230 227 213 205 209 206 200 200 203 203 203 202 202 198 195 185 185 188 194 205
323 324 327 330 328 324 317 313 310 303 293 288 280 276 276 270 269 272 279 253 253 247 242 230 218 211 204 199 201 202 205 210 213 214 211 205 197 190 189 186 179 154 107
322 322 323 322 320 324 322 314 310 305 301 295 287 276 276 275 273 277 286 256 248 248 241 229 216 209 194 186 191 192 197 204 191 187 184 175 166 168 163 150 150 151 157
313 310 310 309 308 309 310 308 302 298 296 296 289 279 273 271 276 283 296 265 246 243 244 231 205 200 191 186 193 190 195 195 179 169 164 157 166 162 162 169 170 169 157
312 307 304 304 302 300 302 303 302 300 299 299 293 285 278 276 281 287 302 295 249 243 242 226 205 189 190 192 196 197 190 181 176 171 166 163 162 162 162 157 163 168 165
311 306 302 302 302 301 300 301 301 300 297 298 294 291 286 279 279 287 304 306 286 239 235 226 205 185 189 192 195 183 169 166 169 165 165 167 167 162 148 131 110 86 81
311 309 308 308 305 302 303 305 305 303 299 298 298 290 292 298 300 294 304 316 315 274 230 216 198 182 183 185 174 169 168 169 166 168 171 170 163 150 133 115 97 86 72
307 309 309 307 307 307 303 298 296 293 292 296 298 295 294 295 300 308 315 324 323 291 204 172 165 163 168 169 164 161 169 173 168 167 159 148 139 139 139 135 128 121 102
304 308 308 305 302 305 304 298 292 288 278 280 286 291 287 283 289 301 301 298 290 254 211 192 167 164 163 162 159 155 155 161 158 151 151 152 148 144 141 140 137 136 129
301 305 306 303 299 298 303 308 300 283 288 282 277 281 281 277 288 296 306 306 279 207 175 173 173 173 174 171 168 163 158 161 157 153 154 157 156 156 151 148 147 142 138
294 299 302 302 297 293 294 297 306 313 303 292 292 295 290 290 290 294 304 307 249 200 187 179 179 180 175 172 169 168 167 165 157 156 157 159 156 157 158 159 158 149 143
294 294 295 295 296 291 288 287 287 293 302 309 312 305 305 296 295 299 302 322 248 217 195 186 185 181 178 174 170 163 158 160 161 160 158 160 160 162 163 164 166 162 152
292 292 293 294 293 291 286 285 285 286 288 295 307 309 314 312 305 295 278 246 232 233 207 199 191 182 179 175 170 163 165 171 167 161 160 163 166 165 166 166 165 160 152
290 291 292 291 291 292 289 284 285 284 284 287 292 294 305 318 308 293 284 268 238 239 225 208 199 183 178 175 169 166 165 169 166 166 166 168 170 170 167 165 163 161 159
286 289 290 288 286 288 288 285 281 279 280 283 288 288 286 281 274 277 278 275 259 246 241 219 204 189 180 175 172 171 172 175 174 174 171 169 168 166 163 161 158 152 145
282 284 286 286 287 289 291 291 285 278 278 284 292 295 288 281 271 271 278 279 279 268 253 226 214 207 192 186 180 178 179 179 177 176 171 166 162 158 154 151 150 146 143
282 285 288 288 288 291 292 290 290 284 280 283 285 279 277 277 272 270 272 278 285 280 274 240 209 206 189 180 184 184 184 186 182 175 168 162 159 157 155 151 149 146 146
282 281 283 285 287 286 285 286 288 286 281 281 275 268 269 269 271 271 274 279 281 287 293 268 230 201 188 179 174 177 180 174 164 166 163 160 157 156 153 149 147 147 147
283 280 280 281 282 281 282 282 283 283 282 278 271 265 264 264 265 272 278 277 278 282 295 290 231 185 175 168 165 161 155 153 151 150 152 152 151 150 149 146 143 142 143
280 278 277 277 277 277 276 276 279 280 280 278 270 262 261 260 261 265 268 263 261 267 284 298 186 161 161 150 141 144 146 145 143 142 143 143 147 147 146 141 140 141 142
Height
1396 1394 1394 1394 1394 1394 1394 1395 1395 1396 1396 1397 1398 1398 1400 1401 1404 1405 1407 1409 1411 1412 1415 1417 1419 1422 1424 1426 1428 1430 1432 1435 1436 1437 1439 1441 1443 1445 1447 1449 1451 1453 1453
1393 1392 1391 1391 1391 1390 1390 1390 1391 1391 1391 1392 1392 1393 1394 1396 1397 1399 1401 1402 1404 1406 1409 1411 1413 1416 1418 1420 1422 1424 1426 1429 1431 1431 1433 1435 1437 1439 1442 1444 1446 1447 1448
1392 1390 1389 1388 1388 1387 1387 1386 1386 1386 1386 1387 1388 1388 1389 1390 1391 1393 1395 1397 1398 1400 1403 1405 1407 1410 1411 1414 1416 1418 1420 1423 1425 1427 1427 1430 1432 1434 1437 1439 1440 1442 1443
1389 1388 1386 1385 1384 1384 1383 1382 1382 1382 1382 1382 1383 1384 1384 1385 1386 1387 1389 1391 1393 1394 1396 1399 1401 1403 1405 1408 1410 1412 1414 1417 1420 1421 1422 1424 1426 1429 1432 1433 1435 1437 1438
1388 1386 1384 1383 1382 1381 1380 1379 1379 1379 1379 1379 1380 1380 1380 1381 1381 1382 1383 1385 1386 1388 1390 1392 1395 1397 1399 1402 1405 1406 1409 1411 1413 1415 1416 1418 1420 1423 1426 1428 1430 1431 1432
1386 1384 1382 1381 1379 1378 1377 1377 1376 1376 1376 1376 1376 1376 1376 1377 1377 1378 1379 1379 1381 1382 1383 1386 1388 1391 1393 1396 1399 1401 1403 1405 1407 1409 1411 1412 1414 1417 1420 1422 1424 1425 1427
1386 1384 1381 1379 1378 1376 1375 1375 1374 1373 1373 1373 1373 1372 1372 1372 1373 1373 1374 1375 1375 1376 1378 1380 1382 1384 1387 1389 1392 1395 1398 1400 1403 1405 1405 1407 1409 1412 1414 1416 1419 1421 1422
1385 1383 1380 1378 1376 1375 1373 1372 1371 1370 1370 1369 1369 1369 1368 1368 1368 1369 1369 1370 1370 1370 1371 1373 1376 1378 1381 1384 1387 1390 1392 1395 1397 1399 1401 1403 1405 1407 1409 1412 1414 1416 1417
1383 1381 1379 1377 1375 1373 1371 1370 1369 1368 1367 1366 1365 1365 1364 1364 1364 1364 1364 1364 1364 1365 1366 1367 1369 1372 1375 1379 1382 1384 1386 1389 1392 1394 1396 1398 1401 1403 1405 1407 1409 1411 1412
1381 1379 1377 1375 1373 1371 1369 1368 1366 1365 1364 1363 1362 1361 1361 1360 1360 1360 1360 1359 1359 1359 1360 1362 1364 1367 1370 1373 1376 1379 1381 1383 1386 1388 1391 1394 1396 1398 1400 1402 1404 1406 1407
1380 1377 1375 1373 1371 1369 1367 1365 1364 1362 1361 1360 1359 1358 1358 1357 1356 1356 1356 1356 1356 1356 1356 1357 1360 1363 1366 1369 1372 1375 1376 1379 1381 1384 1386 1389 1391 1393 1396 1398 1400 1402 1403
1378 1375 1373 1371 1368 1366 1365 1363 1361 1360 1358 1357 1356 1355 1354 1354 1353 1352 1352 1352 1352 1352 1353 1354 1356 1359 1362 1365 1368 1370 1373 1376 1378 1380 1382 1385 1387 1389 1391 1394 1396 1398 1400
1376 1373 1371 1368 1366 1364 1363 1361 1359 1358 1356 1354 1353 1352 1351 1351 1350 1349 1349 1348 1348 1349 1349 1351 1353 1356 1359 1361 1364 1367 1369 1371 1373 1376 1378 1380 1383 1385 1388 1390 1392 1395 1397
1373 1371 1369 1366 1364 1362 1360 1358 1357 1355 1354 1352 1351 1349 1348 1348 1347 1346 1345 1345 1345 1346 1347 1348 1351 1353 1356 1358 1361 1363 1365 1367 1370 1372 1374 1377 1380 1382 1384 1386 1389 1391 1394
1370 1368 1366 1364 1362 1360 1358 1356 1354 1353 1352 1350 1349 1348 1346 1345 1345 1345 1344 1343 1343 1343 1344 1346 1348 1350 1352 1355 1357 1360 1362 1365 1367 1369 1371 1373 1376 1378 1381 1384 1387 1389 1391
1367 1365 1363 1361 1359 1357 1355 1353 1351 1351 1349 1348 1347 1346 1344 1344 1343 1342 1341 1341 1341 1342 1343 1344 1346 1348 1350 1352 1355 1357 1359 1361 1364 1366 1368 1370 1373 1375 1378 1381 1384 1386 1388
1365 1363 1361 1359 1357 1354 1353 1350 1348 1347 1346 1345 1344 1343 1342 1341 1340 1339 1338 1338 1339 1341 1341 1342 1344 1346 1348 1350 1353 1355 1357 1359 1362 1364 1366 1368 1370 1373 1376 1378 1381 1384 1386
1362 1360 1358 1356 1354 1352 1350 1348 1346 1344 1342 1341 1341 1340 1339 1338 1337 1337 1337 1337 1337 1338 1339 1340 1342 1344 1346 1348 1351 1353 1355 1357 1360 1362 1363 1365 1368 1370 1373 1376 1379 1381 1383
1358 1356 1354 1352 1351 1349 1347 1345 1344 1342 1340 1339 1337 1337 1336 1336 1335 1335 1335 1334 1334 1335 1337 1338 1340 1342 1344 1346 1349 1351 1353 1355 1358 1360 1361 1364 1366 1368 1371 1373 1376 1379 1381
1354 1353 1351 1349 1347 1346 1344 1342 1340 1339 1338 1336 1335 1334 1334 1333 1332 1332 1332 1333 1333 1334 1335 1337 1338 1340 1342 1344 1347 1349 1351 1354 1356 1358 1360 1362 1364 1366 1369 1371 1373 1376 1378
1350 1348 1347 1345 1343 1342 1341 1339 1338 1336 1335 1334 1333 1333 1333 1332 1331 1330 1330 1331 1331 1332 1333 1335 1337 1339 1340 1343 1345 1347 1349 1352 1354 1356 1358 1360 1362 1364 1366 1369 1371 1374 1376
1346 1344 1343 1341 1340 1338 1337 1336 1335 1334 1332 1332 1331 1331 1330 1330 1329 1328 1328 1329 1330 1330 1332 1333 1335 1337 1339 1341 1343 1345 1347 1350 1352 1354 1356 1358 1360 1362 1364 1367 1369 1372 1374
1342 1341 1339 1338 1336 1335 1334 1332 1331 1330 1330 1329 1328 1328 1327 1327 1326 1326 1326 1327 1328 1329 1330 1332 1333 1334 1337 1339 1341 1343 1345 1348 1350 1352 1354 1356 1358 1360 1362 1365 1367 1370 1372
1339 1337 1336 1334 1333 1332 1330 1329 1328 1327 1327 1326 1326 1325 1325 1324 1324 1324 1324 1325 1326 1327 1328 1329 1331 1333 1335 1337 1339 1342 1344 1346 1348 1350 1352 1354 1356 1358 1361 1363 1366 1369 1372
1335 1333 1332 1331 1329 1328 1327 1326 1325 1324 1323 1323 1323 1322 1322 1322 1322 1322 1322 1323 1324 1325 1326 1327 1329 1331 1333 1335 1338 1340 1342 1344 1346 1348 1351 1353 1355 1357 1359 1362 1365 1368 1371
1331 1329 1328 1327 1326 1324 1323 1322 1321 1321 1320 1320 1320 1320 1319 1319 1320 1320 1320 1321 1322 1323 1324 1326 1327 1330 1332 1334 1336 1338 1340 1343 1345 1347 1349 1351 1354 1356 1359 1362 1364 1367 1370